Year,Month,Day,Hour,Minute,Value (Times are PST for temperature in C)
2010,09,27,10,29,15.40
2010,09,27,10,30,15.40
2010,09,27,10,31,15.40
2010,09,27,10,32,15.50
2010,09,27,10,33,15.50
2010,09,27,10,34,15.50
2010,09,27,10,35,15.40
2010,09,27,10,36,15.40
2010,09,27,10,37,15.40
2010,09,27,10,38,15.40
2010,09,27,10,39,15.40
2010,09,27,10,40,15.30
2010,09,27,10,41,15.30
2010,09,27,10,42,15.30
2010,09,27,10,43,15.30
2010,09,27,10,44,15.40
2010,09,27,10,45,15.40
2010,09,27,10,46,15.30
2010,09,27,10,47,15.30
2010,09,27,10,48,15.30
2010,09,27,10,49,15.30
2010,09,27,10,50,15.30
2010,09,27,10,51,15.30
2010,09,27,10,52,15.30
2010,09,27,10,53,15.40
2010,09,27,10,54,15.40
2010,09,27,10,55,15.40
2010,09,27,10,56,15.40
2010,09,27,10,57,15.40
2010,09,27,10,58,15.40
2010,09,27,10,59,15.50
2010,09,27,11,00,15.50
2010,09,27,11,01,15.50
2010,09,27,11,02,15.60
2010,09,27,11,03,15.60
2010,09,27,11,04,15.70
2010,09,27,11,05,15.70
2010,09,27,11,06,15.70
2010,09,27,11,07,15.80
2010,09,27,11,08,15.80
2010,09,27,11,09,15.80
2010,09,27,11,10,15.90
2010,09,27,11,11,15.90
2010,09,27,11,12,16.00
2010,09,27,11,13,16.00
2010,09,27,11,14,16.10
2010,09,27,11,15,16.10
2010,09,27,11,16,16.10
2010,09,27,11,17,16.20
2010,09,27,11,18,16.20
2010,09,27,11,19,16.20
2010,09,27,11,20,16.30
2010,09,27,11,21,16.30
2010,09,27,11,22,16.40
2010,09,27,11,23,16.40
2010,09,27,11,24,16.50
2010,09,27,11,25,16.50
2010,09,27,11,26,16.50
2010,09,27,11,27,16.50
2010,09,27,11,28,16.60
2010,09,27,11,29,16.60
2010,09,27,11,30,16.60
2010,09,27,11,31,16.60
2010,09,27,11,32,16.70
2010,09,27,11,33,16.70
2010,09,27,11,34,16.70
2010,09,27,11,35,16.70
2010,09,27,11,36,16.70
2010,09,27,11,37,16.80
2010,09,27,11,38,16.80
2010,09,27,11,39,16.80
2010,09,27,11,40,16.80
2010,09,27,11,41,16.90
2010,09,27,11,42,16.90
2010,09,27,11,43,16.90
2010,09,27,11,44,16.90
2010,09,27,11,45,16.90
2010,09,27,11,46,17.00
2010,09,27,11,47,17.00
2010,09,27,11,48,17.10
2010,09,27,11,49,17.10
2010,09,27,11,50,17.10
2010,09,27,11,51,17.20
2010,09,27,11,52,17.20
2010,09,27,11,53,17.20
2010,09,27,11,54,17.20
2010,09,27,11,55,17.30
2010,09,27,11,56,17.30
2010,09,27,11,57,17.30
2010,09,27,11,58,17.30
2010,09,27,11,59,17.30
2010,09,27,12,00,17.30
2010,09,27,12,01,17.30
2010,09,27,12,02,17.30
2010,09,27,12,03,17.40
2010,09,27,12,04,17.40
2010,09,27,12,05,17.50
2010,09,27,12,06,17.60
2010,09,27,12,07,17.70
2010,09,27,12,08,17.70
2010,09,27,12,09,17.70
2010,09,27,12,10,17.80
2010,09,27,12,11,17.80
2010,09,27,12,12,17.90
2010,09,27,12,13,17.90
2010,09,27,12,14,17.90
2010,09,27,12,15,17.90
2010,09,27,12,16,18.00
2010,09,27,12,17,18.10
2010,09,27,12,18,18.10
2010,09,27,12,19,18.10
2010,09,27,12,20,18.20
2010,09,27,12,21,18.20
2010,09,27,12,22,18.30
2010,09,27,12,23,18.30
2010,09,27,12,24,18.30
2010,09,27,12,25,18.40
2010,09,27,12,26,18.40
2010,09,27,12,27,18.50
2010,09,27,12,28,18.60
2010,09,27,12,29,18.50
2010,09,27,12,30,18.60
2010,09,27,12,31,18.60
2010,09,27,12,32,18.60
2010,09,27,12,33,18.60
2010,09,27,12,34,18.60
2010,09,27,12,35,18.60
2010,09,27,12,36,18.60
2010,09,27,12,37,18.60
2010,09,27,12,38,18.50
2010,09,27,12,39,18.50
2010,09,27,12,40,18.50
2010,09,27,12,41,18.60
2010,09,27,12,42,18.60
2010,09,27,12,43,18.60
2010,09,27,12,44,18.60
2010,09,27,12,45,18.60
2010,09,27,12,46,18.60
2010,09,27,12,47,18.70
2010,09,27,12,48,18.70
2010,09,27,12,49,18.70
2010,09,27,12,50,18.70
2010,09,27,12,51,18.70
2010,09,27,12,52,18.70
2010,09,27,12,53,18.70
2010,09,27,12,54,18.70
2010,09,27,12,55,18.70
2010,09,27,12,56,18.70
2010,09,27,12,57,18.70
2010,09,27,12,58,18.80
2010,09,27,12,59,18.80
2010,09,27,13,00,18.80
2010,09,27,13,01,18.80
2010,09,27,13,02,18.80
2010,09,27,13,03,18.80
2010,09,27,13,04,18.80
2010,09,27,13,05,18.80
2010,09,27,13,06,18.80
2010,09,27,13,07,18.80
2010,09,27,13,08,18.90
2010,09,27,13,09,18.80
2010,09,27,13,10,18.70
2010,09,27,13,11,18.60
2010,09,27,13,12,18.40
2010,09,27,13,13,18.20
2010,09,27,13,14,17.90
2010,09,27,13,15,17.70
2010,09,27,13,16,17.50
2010,09,27,13,17,17.30
2010,09,27,13,18,17.10
2010,09,27,13,19,17.00
2010,09,27,13,20,16.90
2010,09,27,13,21,16.80
2010,09,27,13,22,16.70
2010,09,27,13,23,16.60
2010,09,27,13,24,16.60
2010,09,27,13,25,16.60
2010,09,27,13,26,16.60
2010,09,27,13,27,16.60
2010,09,27,13,28,16.60
2010,09,27,13,29,16.60
2010,09,27,13,30,16.60
2010,09,27,13,31,16.70
2010,09,27,13,32,16.70
2010,09,27,13,33,16.70
2010,09,27,13,34,16.80
2010,09,27,13,35,16.80
2010,09,27,13,36,16.90
2010,09,27,13,37,17.00
2010,09,27,13,38,17.10
2010,09,27,13,39,17.10
2010,09,27,13,40,17.10
2010,09,27,13,41,17.10
2010,09,27,13,42,17.20
2010,09,27,13,43,17.20
2010,09,27,13,44,17.20
2010,09,27,13,45,17.20
2010,09,27,13,46,17.10
2010,09,27,13,47,17.10
2010,09,27,13,48,17.10
2010,09,27,13,49,17.00
2010,09,27,13,50,17.00
2010,09,27,13,51,16.90
2010,09,27,13,52,17.00
2010,09,27,13,53,17.00
2010,09,27,13,54,17.00
2010,09,27,13,55,17.00
2010,09,27,13,56,17.00
2010,09,27,13,57,17.00
2010,09,27,13,58,16.90
2010,09,27,13,59,16.90
2010,09,27,14,00,16.80
2010,09,27,14,01,16.80
2010,09,27,14,02,16.70
2010,09,27,14,03,16.70
2010,09,27,14,04,16.60
2010,09,27,14,05,16.50
2010,09,27,14,06,16.50
2010,09,27,14,07,16.40
2010,09,27,14,08,16.40
2010,09,27,14,09,16.40
2010,09,27,14,10,16.30
2010,09,27,14,11,16.30
2010,09,27,14,12,16.30
2010,09,27,14,13,16.30
2010,09,27,14,14,16.30
2010,09,27,14,15,16.30
2010,09,27,14,16,16.20
2010,09,27,14,17,16.20
2010,09,27,14,18,16.20
2010,09,27,14,19,16.20
2010,09,27,14,20,16.20
2010,09,27,14,21,16.30
2010,09,27,14,22,16.30
2010,09,27,14,23,16.30
2010,09,27,14,24,16.30
2010,09,27,14,25,16.30
2010,09,27,14,26,16.30
2010,09,27,14,27,16.30
2010,09,27,14,28,16.40
2010,09,27,14,29,16.40
2010,09,27,14,30,16.50
2010,09,27,14,31,16.50
2010,09,27,14,32,16.60
2010,09,27,14,33,16.60
2010,09,27,14,34,16.70
2010,09,27,14,35,16.70
2010,09,27,14,36,16.70
2010,09,27,14,37,16.70
2010,09,27,14,38,16.70
2010,09,27,14,39,16.70
2010,09,27,14,40,16.80
2010,09,27,14,41,16.80
2010,09,27,14,42,16.90
2010,09,27,14,43,16.90
2010,09,27,14,44,17.00
2010,09,27,14,45,17.00
2010,09,27,14,46,17.10
2010,09,27,14,47,17.10
2010,09,27,14,48,17.10
2010,09,27,14,49,17.20
2010,09,27,14,50,17.30
2010,09,27,14,51,17.30
2010,09,27,14,52,17.40
2010,09,27,14,53,17.40
2010,09,27,14,54,17.50
2010,09,27,14,55,17.60
2010,09,27,14,56,17.60
2010,09,27,14,57,17.60
2010,09,27,14,58,17.60
2010,09,27,14,59,17.60
2010,09,27,15,00,17.70
2010,09,27,15,01,17.70
2010,09,27,15,02,17.80
2010,09,27,15,03,17.80
2010,09,27,15,04,17.80
2010,09,27,15,05,17.90
2010,09,27,15,06,17.90
2010,09,27,15,07,17.90
2010,09,27,15,08,17.90
2010,09,27,15,09,17.90
2010,09,27,15,10,17.90
2010,09,27,15,11,17.90
2010,09,27,15,12,17.90
2010,09,27,15,13,17.90
2010,09,27,15,14,17.90
2010,09,27,15,15,17.90
2010,09,27,15,16,17.90
2010,09,27,15,17,17.90
2010,09,27,15,18,17.90
2010,09,27,15,19,17.90
2010,09,27,15,20,17.80
2010,09,27,15,21,17.80
2010,09,27,15,22,17.80
2010,09,27,15,23,17.80
2010,09,27,15,24,17.80
2010,09,27,15,25,17.80
2010,09,27,15,26,17.80
2010,09,27,15,27,17.80
2010,09,27,15,28,17.80
2010,09,27,15,29,17.80
2010,09,27,15,30,17.80
2010,09,27,15,31,17.80
2010,09,27,15,32,17.80
2010,09,27,15,33,17.80
2010,09,27,15,34,17.80
2010,09,27,15,35,17.80
2010,09,27,15,36,17.90
2010,09,27,15,37,17.90
2010,09,27,15,38,17.90
2010,09,27,15,39,17.90
2010,09,27,15,40,17.90
2010,09,27,15,41,17.90
2010,09,27,15,42,17.90
2010,09,27,15,43,17.90
2010,09,27,15,44,17.90
2010,09,27,15,45,17.90
2010,09,27,15,46,17.90
2010,09,27,15,47,18.00
2010,09,27,15,48,18.00
2010,09,27,15,49,18.10
2010,09,27,15,50,18.10
2010,09,27,15,51,18.10
2010,09,27,15,52,18.10
2010,09,27,15,53,18.10
2010,09,27,15,54,18.10
2010,09,27,15,55,18.10
2010,09,27,15,56,18.10
2010,09,27,15,57,18.10
2010,09,27,15,58,18.10
2010,09,27,15,59,18.10
2010,09,27,16,00,18.10
2010,09,27,16,01,18.10
2010,09,27,16,02,18.10
